sat.trackr.live / text

‹ back to catalog

STARLINK-6334

NORAD 57238 · 2023-094W

PAYLOAD ACTIVE UNKNOWN

§ Identity

Operator
Country
US
Launch date
2023-07-07
Launch site
AFWTR
Launch vehicle
Mass (kg)
RCS (m²)

Purposes: comms

External: N2YO · Heavens-Above · Gunter

§ Orbital elements

Epoch: 2026-09-20T07:44:56.374080Z

Period
94.27 min
Inclination
43.0054°
Eccentricity
0.0001691
Mean motion
15.27566278 rev/d
Perigee alt
481.9 km
Apogee alt
484.3 km
Semi-major
6,861.2 km
B*
3.2933e-5
RAAN
0.9563°
Arg perigee
268.1367°
Mean anomaly
91.9291°
Rev number
17,700

§ Raw data

STARLINK-63341 57238U 23094W   26263.32287470  .00000644  00000+0  32933-4 0  99922 57238  43.0054   0.9563 0001691 268.1367  91.9291 15.27566278177001

JSON: /api/v1/satellites/57238 · /tle

For live sub-satellite position, see the globe view (requires WebGL).

§ Visibility from observer

Set your observer location to see the next 7 days of passes ≥ 10°. The values pass through the URL so the page stays shareable.

No JS? Fill the form by hand. The geolocation button needs JavaScript.